Regional Weather Roundup
Issued by NWS

Home | Current Version | Previous Version | Graphics & Text | Print | Product List | Glossary Off
Versions: 1 2 3 4 5 6 7 8 9 10 11 12 13 14 15 16 17 18 19 20 21 22 23 24 25 26 27 28 29 30 31 32 33 34 35 36 37 38 39 40 41 42 43 44 45 46 47 48 49 50

000
ASUS43 KMKX 030711
RWRWI

WISCONSIN REGIONAL WEATHER ROUNDUP
NATIONAL WEATHER SERVICE MILWAUKEE/SULLIVAN WI
200 AM CDT THU SEP 03 2015

NOTE: "FAIR" INDICATES FEW OR NO CLOUDS BELOW 12,000 FEET WITH NO
SIGNIFICANT WEATHER AND/OR OBSTRUCTIONS TO VISIBILITY.

WIZ001-002-006>008-014>016-023>028-030800-
NORTHWEST WISCONSIN

CITY           SKY/WX    TMP DP  RH WIND       PRES   REMARKS
SUPERIOR ARPT  FOG       59  59 100 CALM      29.97S VSB 1/2
ASHLAND        FOG       62  62 100 CALM      29.97S VSB 1/4
HAYWARD        FOG       60  59  96 NE7       29.96S VSB 1/4
SIREN          CLEAR     64  64  97 E3        29.94F
CUMBERLAND     CLOUDY    64  63  94 CALM      29.95S
RICE LAKE      CLOUDY    66  64  96 CALM      29.95F FOG
CHETEK         CLEAR    N/A N/A N/A MISG      29.94F
LADYSMITH      MOCLDY    66  64  94 CALM      29.97S
EAU CLAIRE     CLOUDY    69  67  93 NE5       29.91F
MENOMONIE      CLEAR     67  66  98 CALM      29.92F FOG
NEW RICHMOND   CLEAR     66  66  98 CALM      29.93F
OSCEOLA        CLEAR     66  66 100 CALM      29.95S
$$

WIZ003>005-009-010-017-018-030800-
NORTH CENTRAL WISCONSIN

CITY           SKY/WX    TMP DP  RH WIND       PRES   REMARKS
MANITOWISH WTR PTCLDY    61  61 100 NE3       29.98S
ARBOR VITAE    CLOUDY    64  63  96 E3        29.98S
WOODRUFF       CLOUDY    64  63  96 E3        29.98S
RHINELANDER    CLOUDY    65  63  93 NE5       29.97F
EAGLE RIVER    CLOUDY    65  64  99 E6        29.97S
LAND O LAKES   CLOUDY    65  64  97 CALM      29.99S
PHILLIPS       MOCLDY    62  62 100 CALM      29.96S FOG
TOMAHAWK       MOCLDY    62  61  96 CALM      29.97S FOG
MEDFORD        CLOUDY    66  66 100 NE5       29.95S FOG
MERRILL        MOCLDY    66  66 100 NE3       29.95S
$$

WIZ029-030-035-036-043>047-030800-
CENTRAL WISCONSIN

CITY           SKY/WX    TMP DP  RH WIND       PRES   REMARKS
WAUSAU         CLOUDY    69  67  93 CALM      29.92F
MOSINEE        CLOUDY    66  66 100 NE5       29.95S THUNDER
MARSHFIELD     CLOUDY    70  66  87 NE6       29.93S
STEVENS POINT  CLOUDY    67  67  98 CALM      29.93S
WAUPACA        CLOUDY    72  71  96 N12       29.91S
WAUTOMA        PTCLDY    70  70 100 CALM      29.91S
WISC RAPIDS    CLOUDY    73  69  87 N7        29.93S
CAMP DOUGLAS   CLEAR     74  74 100 W7        29.90F
$$

WIZ011>013-019>022-031-037>040-048>050-030800-
NORTHEAST WISCONSIN

CITY           SKY/WX    TMP DP  RH WIND       PRES   REMARKS
ANTIGO         CLOUDY    66  65  99 N5        29.94F
SHAWANO        NOT AVBL
OCONTO         CLOUDY    66  66 100 E3        29.89F
STURGEON BAY   CLOUDY    66  63  88 CALM      29.92F
GREEN BAY      LGT RAIN  69  68  96 E3        29.89F FOG
MANITOWOC      CLOUDY    65  63  93 MISG      29.91F
APPLETON       TSTM      68  63  83 SW18G37   29.90S
CLINTONVILLE   HVY RAIN  68  68 100 CALM      29.91F
OSHKOSH        PTCLDY    72  68  87 SW8       29.89F
$$

WIZ032>034-041-042-053>061-030800-
SOUTHWEST WISCONSIN

CITY           SKY/WX    TMP DP  RH WIND       PRES   REMARKS
LA CROSSE      CLEAR     75  69  81 S7        29.89F
SPARTA         CLEAR     67  65  93 CALM      29.91F
VIROQUA          N/A     71  70  99 SW5       29.93F
BOSCOBEL       CLOUDY    76  70  82 SW5       29.91F
PRAIRIE DU CHI CLOUDY    72  68  87 CALM      29.91F
PLATTEVILLE    CLOUDY    73  70  92 S5        29.95F
$$

WIZ056-057-062-063-064-067-068-030800-
SOUTH CENTRAL WISCONSIN

CITY           SKY/WX    TMP DP  RH WIND       PRES   REMARKS
REEDSBURG      CLEAR     74  69  83 SW8       29.91F
BARABOO/DELLS  CLEAR     73  66  78 SW7       29.92S
LONE ROCK      MOCLDY    70  67  90 CALM      29.92F
MINERAL POINT  CLEAR     73  70  88 SW5       29.94F
MADISON        CLEAR     74  69  85 S3        29.92F
MIDDLETON      CLEAR     75  67  76 SW7       29.93S
WATERTOWN      MOCLDY    72  72 100 S3        29.92F
MONROE         CLOUDY    73  68  83 SW12      29.95S
JANESVILLE     PTCLDY    72  70  94 SW5       29.93F
$$

WIZ051-052-058>065-066-070>072-030800-
SOUTHEAST WISCONSIN

CITY           SKY/WX    TMP DP  RH WIND       PRES   REMARKS
MILWAUKEE      PTCLDY    76  69  79 S10       29.92F
WAUKESHA       PTCLDY    73  66  78 S3        29.95S
MILWAUKEE/TIMM PTCLDY    73  68  83 S6        29.93F
RACINE         MOCLDY    73  67  81 SW5       29.95F
BURLINGTON     PTCLDY    70  68  93 SW5       29.94S
KENOSHA        MOCLDY    74  69  85 S6        29.94F
FOND DU LAC    MOCLDY    73  69  87 SW7       29.91S
SHEBOYGAN      CLOUDY    73  70  90 S3        29.92S
WEST BEND      MOCLDY    70  64  83 CALM      29.92F
JUNEAU         CLEAR     70  68  93 S6        29.93S
$$

LSZ147-162-030800-
LAKE SUPERIOR

STATION/POSITION TIME  TEMP    WIND        PRES    WAVE
                       AIR SEA DIR/SP/G            HT/PER
                 (UTC) (F)     (DEG/KT/KT) (MB)    (FT/S)
W MID LAKE BUOY  0650   57 56   30/  8/  8 1014.8F   0
DEVILS ISLAND    0700   57      20/ 11/ 12 1014.9F
PORT WING        0600   59      40/  6/  8 1015.2S
SAXON HARBOR     0600   60        CALM     1014.2S
$$

LMZ867-665-643>646-030800-
LAKE MICHIGAN

STATION/POSITION TIME  TEMP    WIND        PRES    WAVE
                       AIR SEA DIR/SP/G            HT/PER
                 (UTC) (F)     (DEG/KT/KT) (MB)    (FT/S)
CHAMBERS ISLAND  0600   65      50/  5/  9 1013.5F
S GREEN BAY BUOY 0700   66 66   80/  6/  6 1013.5F
N MID LAKE BUOY  0650   67 66  360/ 14/ 16 1013.4R   1
NORTHPORT PIER   0600   67      CALM  /  3 1013.5F
SISTER BAY       0541   69     120/  8/ 11   N/A
ALGOMA LAKESHORE 0644           20/  4/  7   N/A
KEWAUNEE LAKESHO 0600   54     160/  3/  6 1011.9F
SHEBOYGAN LAKESH 0700   71     230/  7/  7 1012.7F
PORT WASHINGTON  0600   65     190/  7/ 10 1014.2S
ATWATER BUOY     0700   62     190/  6/  8 1014.6F
MILWAUKEE LAKESH 0610   68     150/  2/  2   N/A
S MID LAKE BUOY  0650   74 71  200/  6/  6 1013.2F   0
KENOSHA   LAKESH 0700   76     220/  6/  9 1013.2F
$$

TC  - TEMPERATURE IN CELSIUS
VSB - VISIBILITY IN STATUTE MILES
WCI - WIND CHILL INDEX
HX  - HEAT INDEX




USA.gov is the U.S. government's official web portal to all federal, state and local government web resources and services.